Regional Weather Roundup
Issued by NWS

Home | Current Version | Previous Version | Graphics & Text | Print | Product List | Glossary On
Versions: 1 2 3 4 5 6 7 8 9 10 11 12 13 14 15 16 17 18 19 20 21 22 23 24 25 26 27 28 29 30 31 32 33 34 35 36 37 38 39 40 41 42 43 44 45 46 47 48 49 50
000
ASUS43 KMKX 031500
RWRWI

WISCONSIN REGIONAL WEATHER ROUNDUP
NATIONAL WEATHER SERVICE MILWAUKEE/SULLIVAN WI
1000 AM CDT TUE MAY 03 2016

NOTE: "FAIR" INDICATES FEW OR NO CLOUDS BELOW 12,000 FEET WITH NO
SIGNIFICANT WEATHER AND/OR OBSTRUCTIONS TO VISIBILITY.

WIZ001-002-006>008-014>016-023>028-031600-
NORTHWEST WISCONSIN

CITY           SKY/WX    TMP DP  RH WIND       PRES   REMARKS
SUPERIOR ARPT  CLOUDY    58  36  43 W10       29.76F
ASHLAND        CLOUDY    60  38  43 W9        29.76F
HAYWARD        CLOUDY    59  35  40 SW9       29.81F
SIREN          MOSUNNY   60  35  39 W10       29.85F
CUMBERLAND     PTSUNNY   57  37  47 W9        29.86F
RICE LAKE      PTSUNNY   60  38  44 W10       29.88S
CHETEK         PTSUNNY   61  39  44 W7        29.86F
LADYSMITH      MOSUNNY   58  40  50 SW8       29.87S
EAU CLAIRE     NOT AVBL
MENOMONIE      SUNNY     63  40  42 SW8       29.88F
NEW RICHMOND   MOSUNNY   59  40  47 W12       29.89S
OSCEOLA        CLOUDY    59  40  50 W8        29.92S
$$

WIZ003>005-009-010-017-018-031600-
NORTH CENTRAL WISCONSIN

CITY           SKY/WX    TMP DP  RH WIND       PRES   REMARKS
MANITOWISH WTR CLOUDY    55  36  48 W10       29.78F
ARBOR VITAE    CLOUDY    57  34  41 W10G18    29.79F
WOODRUFF       CLOUDY    57  34  41 W10G18    29.79F
RHINELANDER    CLOUDY    60  33  36 W13G21    29.81F
EAGLE RIVER    CLOUDY    56  32  41 SW10      29.79F
LAND O LAKES   CLOUDY    58  32  36 SW5       29.77F
PHILLIPS       CLOUDY    58  37  44 SW7       29.81F
TOMAHAWK       CLOUDY    60  32  34 W13G18    29.83F
MEDFORD        MOSUNNY   57  40  51 W10       29.86F
MERRILL        MOSUNNY   61  36  39 W13G21    29.85F
$$

WIZ029-030-035-036-043>047-031600-
CENTRAL WISCONSIN

CITY           SKY/WX    TMP DP  RH WIND       PRES   REMARKS
WAUSAU         SUNNY     64  36  35 W16G23    29.84F
MOSINEE        SUNNY     63  37  39 W13G20    29.87F
MARSHFIELD     SUNNY     62  40  44 W13       29.87F
STEVENS POINT  SUNNY     58  37  45 W7        29.89S
WAUPACA        SUNNY     65  34  31 W13       29.88F
WAUTOMA        SUNNY     63  38  39 W16G22    29.89F
WISC RAPIDS    SUNNY     63  36  36 NW12      29.90F
CAMP DOUGLAS   NOT AVBL
$$

WIZ011>013-019>022-031-037>040-048>050-031600-
NORTHEAST WISCONSIN

CITY           SKY/WX    TMP DP  RH WIND       PRES   REMARKS
ANTIGO         SUNNY     59  37  43 W14       29.85F
SHAWANO        SUNNY     65  34  31 W8G16     29.85F
OCONTO         SUNNY     62  36  37 W13       29.83F
STURGEON BAY   MOSUNNY   59  36  41 W10       29.85F
GREEN BAY      SUNNY     63  40  42 W12       29.85F
MANITOWOC      NOT AVBL
APPLETON       MOSUNNY   61  34  36 W15       29.86F
CLINTONVILLE   SUNNY     63  32  31 W10G18    29.86F
OSHKOSH        SUNNY     62  39  42 W10G18    29.88F
$$

WIZ032>034-041-042-053>061-031600-
SOUTHWEST WISCONSIN

CITY           SKY/WX    TMP DP  RH WIND       PRES   REMARKS
LA CROSSE      SUNNY     63  42  46 S7        29.92F
SPARTA         SUNNY     59  42  52 W7        29.92F
VIROQUA        SUNNY     59  40  48 W15       29.94F
BOSCOBEL       SUNNY     63  43  48 VRB5      29.96F
PRAIRIE DU CHI SUNNY     60  41  50 W7        29.97F
PLATTEVILLE    SUNNY     58  46  64 W9        29.97F
$$

WIZ056-057-062-063-064-067-068-031600-
SOUTH CENTRAL WISCONSIN

CITY           SKY/WX    TMP DP  RH WIND       PRES   REMARKS
REEDSBURG      SUNNY     59  43  55 W8        29.93F
BARABOO/DELLS  SUNNY     59  38  45 W13       29.92F
LONE ROCK      NOT AVBL
MINERAL POINT  SUNNY     61  41  48 NW9       29.96F
MADISON        MOSUNNY   61  40  45 NW10      29.93F
MIDDLETON      SUNNY     60  43  53 W14       29.94F
WATERTOWN      SUNNY     59  42  52 NW7       29.92F
MONROE         SUNNY     59  41  51 W10G17    29.95F
JANESVILLE     MOSUNNY   63  43  48 NW10      29.93F
$$

WIZ051-052-058>065-066-070>072-031600-
SOUTHEAST WISCONSIN

CITY           SKY/WX    TMP DP  RH WIND       PRES   REMARKS
MILWAUKEE      MOSUNNY   62  38  40 NW8       29.92F
WAUKESHA       SUNNY     57  39  51 NW12      29.93F
MILWAUKEE/TIMM SUNNY     61  37  41 W8        29.92F
RACINE         SUNNY     61  39  44 VRB7      29.94F
BURLINGTON     SUNNY     60  39  45 W9        29.93F
KENOSHA        SUNNY     60  41  49 W7        29.93F
FOND DU LAC    SUNNY     63  39  41 W9        29.89F
SHEBOYGAN      SUNNY     63  38  39 W12       29.88F
WEST BEND      SUNNY     61  39  44 W8        29.91S
JUNEAU         SUNNY     58  40  51 W7        29.92F
$$

LSZ147-162-031600-
LAKE SUPERIOR

STATION/POSITION TIME  TEMP    WIND        PRES    WAVE
                       AIR SEA DIR/SP/G            HT/PER
                 (UTC) (F)     (DEG/KT/KT) (MB)    (FT/S)
W MID LAKE BUOY  1250   41 37  230/ 12/ 14 1006.7F   1/ 3
DEVILS ISLAND    1400   49     240/ 23/ 26 1006.6F
SAXON HARBOR     1400   58     220/  9/ 15 1007.5F
$$

LMZ867-665-643>646-031600-
LAKE MICHIGAN

STATION/POSITION TIME  TEMP    WIND        PRES    WAVE
                       AIR SEA DIR/SP/G            HT/PER
                 (UTC) (F)     (DEG/KT/KT) (MB)    (FT/S)
CHAMBERS ISLAND  1400   51     190/  6/ 10 1010.2F
N MID LAKE BUOY  1250   41 38  200/ 12/ 12 1010.5F   1/ 3
NORTHPORT PIER   1400   56     250/  4/  6 1009.8F
ALGOMA LAKESHORE 1315          280/  9/ 11   N/A
KEWAUNEE LAKESHO 1400   59     270/ 10/ 14 1010.5F
SHEBOYGAN LAKESH 1400   59     280/ 10/ 11 1012.6F
PORT WASHINGTON  1400   60     290/  8/ 13 1013.5F
S MID LAKE BUOY  1250   42 41  170/  4/  6 1014.5F   0
KENOSHA   LAKESH 1400   56     250/ 10/ 11 1013.9F
$$

TC  - TEMPERATURE IN CELSIUS
VSB - VISIBILITY IN STATUTE MILES
WCI - WIND CHILL INDEX
HX  - HEAT INDEX




USA.gov is the U.S. government's official web portal to all federal, state and local government web resources and services.